STARLINK-4664 (53777 NORAD) Tracking and Keplerian Element Data

This shows tracking and keplerian element data for the satellite.

Feedback or suggestion? Click here.




ElementValue
Catalog53777
NameSTARLINK-4664
Epoch Orbit1106
Epoch Day325.33334491
Epoch Year2022
RAAN280.8361
Inclination53.2172
Eccentricity0.00019
Argument of Perigee48.7716
Mean Anonmoly74.9608
Mean Motion15.0903786
Decay Rate-0.00252091
L11 53777U 22111E 22325.33334491 -.00252091 00000+0 -16298-1 0 9997
L22 53777 53.2172 280.8361 0001900 48.7716 74.9608 15.09037860 11063



Live tracking and technical data element details for STARLINK-4664 (NORAD 53777). STARLINK-4664 can be tracked NOW for your location showing map with azimuth and elevation plus other details from your city location.







IsCatalogInMostPopularTable: catalog: 53777, numindb: -1

Insert: records affected: 1


GetName: 53777 STARLINK-4664

Hit Count: inserted at: Thu, 08 Dec 2022 09:07:01 GMT